SMAP

Last updated on Sat Aug 15 2026 00:02:45 GMT+0000 (Coordinated Universal Time)

1 40376U 15003A 26226.60971888 .00000158 00000+0 39594-4 0 9991 2 40376 98.1302 232.8826 0001373 90.9568 269.1792 14.63350417616167
UTC large
Height (km)
Speed (km/s)
/
Latitude / Longitude
Inclination (degrees)
Orbital Period (minutes)
Azimuth
Elevation
Range (km)
Doppler Factor

Next 0 passes for location: London (51.5072 / 0.1276)

No passes found over London.
SMAP